This is the latest recevied weather packets stored in our database for station/object WD4IXD-WX. If no packets are shown the sender has not sent any weather packets the latest 10 day(s).
| Time | Temp. | Humidity | Pressure | Rain* | Wind** | Luminosity | Snow |
|---|---|---|---|---|---|---|---|
| 1777832704 | 11.67° C | 20% | 1021 hPa | 0 mm | - | 686 W/m² | - |
| 1777832404 | 11.67° C | 19% | 1021 hPa | 0 mm | - | 812 W/m² | - |
| 1777832104 | 11.67° C | 19% | 1021 hPa | 0 mm | - | 768 W/m² | - |
| 1777831804 | 11.11° C | 20% | 1021 hPa | 0 mm | - | 940 W/m² | - |
| 1777831504 | 11.11° C | 22% | 1021.2 hPa | 0 mm | - | 933 W/m² | - |
| 1777831204 | 11.11° C | 21% | 1021.2 hPa | 0 mm | - | 1034 W/m² | - |
| 1777830904 | 10.56° C | 20% | 1021.3 hPa | 0 mm | - | 1002 W/m² | - |
| 1777830603 | 10.56° C | 21% | 1021.4 hPa | 0 mm | - | 919 W/m² | - |
| 1777830304 | 10.56° C | 20% | 1021.4 hPa | 0 mm | - | 983 W/m² | - |
| 1777830003 | 10° C | 20% | 1021.3 hPa | 0 mm | - | 654 W/m² | - |
| 1777829704 | 10° C | 22% | 1021.4 hPa | 0 mm | - | 677 W/m² | - |
| 1777829403 | 10° C | 19% | 1021.4 hPa | 0 mm | - | 371 W/m² | - |
| 1777829104 | 10.56° C | 23% | 1021.5 hPa | 0 mm | - | 323 W/m² | - |
| 1777828804 | 10.56° C | 24% | 1021.5 hPa | 0 mm | - | 573 W/m² | - |
| 1777828504 | 10.56° C | 25% | 1021.5 hPa | 0 mm | - | 744 W/m² | - |
| 1777828203 | 10° C | 26% | 1021.6 hPa | 0 mm | - | 986 W/m² | - |
| 1777827904 | 9.44° C | 27% | 1021.7 hPa | 0 mm | - | 870 W/m² | - |
| 1777827604 | 9.44° C | 28% | 1021.7 hPa | 0 mm | - | 253 W/m² | - |
| 1777827304 | 9.44° C | 28% | 1021.8 hPa | 0 mm | - | 601 W/m² | - |
| 1777827004 | 8.89° C | 27% | 1021.8 hPa | 0 mm | - | 594 W/m² | - |
| 1777826703 | 9.44° C | 30% | 1021.8 hPa | 0 mm | - | 230 W/m² | - |
| 1777826404 | 8.89° C | 31% | 1021.8 hPa | 0 mm | - | 714 W/m² | - |
| 1777826104 | 8.89° C | 31% | 1021.9 hPa | 0 mm | - | 763 W/m² | - |
| 1777825804 | 8.89° C | 33% | 1021.9 hPa | 0 mm | - | 691 W/m² | - |
| 1777825504 | 8.33° C | 33% | 1021.9 hPa | 0 mm | - | 700 W/m² | - |
* Rain latest hour (hover to see other rain measurements)
** Current wind speed in m/s (hover to see current wind gust speed)